Molniya-1

unknown
NORAD ID: 17078 Int'l Des: 1986-089 Owner: UNKS Country: SU
MEOELLIPTICALHEO_ELLIPTICALSEMI_SYNCMOLNIYA

关于 Molniya-1

正在加载描述...

实时位置

正在加载3D地球...

即将过境

高度历史

Altitude vs Time

uPlot chart will show altitude changes over time

两行轨道根数

1 17078U 86089A 26058.89490927 -.00001046 00000-0 11346-2 0 9992
2 17078 63.5995 27.2281 7334074 252.7521 21.3531 2.01045340287940
Epoch: Feb 27, 2026 • Age: 132 hours

当前状态

高度 36754.8 km
速度 1.86 km/s
星下点 51.07°N, 75.76°E
发射日期 Nov 15, 1986
运行时间 39.2 years
类型 other

技术详情

分类 Payload
质量 1650.00 kg
干质量 1620.00 kg
总质量 1650.00 kg
长度 4.40 m
直径 1.40 m
跨度 8.60 m
形状 Cyl + 6 Pan
制造商 NPOPM
平台类型 Molniya-1
阶段状态 In Orbit
所有者/国家 UNKS/SU

大型星座

Loading constellations...